Location: Ottawa
(45.4170°N, 75.7000°W)
Time: 12:23:28
(UTC-04:00)

Amateur Radio Satellites - All Passes

Search period start: 28 July 2014 11:53
Search period end: 29 July 2014 11:53
Location: Ottawa, 45.4170°N, 75.7000°W

Satellite Date Start Highest point End Downlink Frequencies (MHz)
Time Altitude Azimuth
Oscar 16 28 Jul 11:54:06 11:55:17 11° 54° (NE) 11:56:27 437.025 USB, Beacon 2401.1428
FUNcube-1 28 Jul 12:02:09 12:06:13 53° 287° (WNW) 12:10:18 145.950 - 145.970 MHz USB
JAS-1B 28 Jul 12:06:31 12:11:08 15° 39° (NE) 12:15:50 435.800 - 435.900 CW/SSB
SO-50 28 Jul 12:27:55 12:31:32 24° 114° (ESE) 12:35:12 436.795 FM
AO-27 28 Jul 12:31:49 12:33:33 12° 54° (NE) 12:35:16 436.795 MHz FM
Uribyol 2 28 Jul 12:32:13 12:34:09 12° 55° (NE) 12:36:05 436.500 FM
Oscar 19 28 Jul 13:00:51 13:05:31 37° 67° (ENE) 13:10:13 437.125 CW, 437.150 USB
HO-68 28 Jul 13:00:56 13:03:52 13° 315° (NW) 13:06:48 435.675 MHz FM
KITSAT 1 28 Jul 13:01:47 13:07:48 22° 22° (NNE) 13:13:48 435.175 FM
AO-Echo 28 Jul 13:22:53 13:27:29 31° 65° (ENE) 13:32:06 ?
Oscar 16 28 Jul 13:28:37 13:33:41 68° 73° (ENE) 13:38:48 437.025 USB, Beacon 2401.1428
RS-15 28 Jul 13:36:54 13:47:31 54° 114° (ESE) 13:57:57 29.354 - 29.394 USB, Beacon 29.352 USB
ITAMSAT 1 28 Jul 13:48:09 13:53:09 48° 69° (ENE) 13:58:09 435.822 SSB
JAS-1B 28 Jul 13:50:35 13:59:07 47° 62° (ENE) 14:08:21 435.800 - 435.900 CW/SSB
TMSAT-1 28 Jul 14:03:08 14:07:09 23° 61° (ENE) 14:11:11 436.925 FM
AO-27 28 Jul 14:06:57 14:12:08 72° 73° (ENE) 14:17:22 436.795 MHz FM
SO-50 28 Jul 14:07:32 14:11:51 45° 313° (NW) 14:16:16 436.795 FM
Uribyol 2 28 Jul 14:07:34 14:12:45 75° 73° (ENE) 14:17:57 436.500 FM
Gurwin Techsat 1B 28 Jul 14:25:49 14:30:50 45° 69° (ENE) 14:35:53 435.225 FM
UOSAT-12 28 Jul 14:32:06 14:36:10 32° 116° (ESE) 14:40:19 437.025 FM, 437.400 FM
Oscar 19 28 Jul 14:40:28 14:44:55 30° 265° (W) 14:49:25 437.125 CW, 437.150 USB
Saudisat 1A 28 Jul 14:41:29 14:43:38 13° 29° (NNE) 14:45:47 436.775 MHz
AO-7 28 Jul 14:53:02 15:00:05 32° 54° (NE) 15:07:07 29.400 - 29.500 MHz
KITSAT 1 28 Jul 14:57:12 15:05:10 57° 49° (NE) 15:13:04 435.175 FM
AO-Echo 28 Jul 15:01:08 15:06:06 40° 263° (W) 15:11:07 ?
Oscar 16 28 Jul 15:10:25 15:13:33 16° 270° (W) 15:16:43 437.025 USB, Beacon 2401.1428
Uosat F 28 Jul 15:19:55 15:24:01 26° 63° (ENE) 15:28:08 435.120 FM
ITAMSAT 1 28 Jul 15:28:43 15:32:53 24° 267° (W) 15:37:04 435.822 SSB
JAS-1B 28 Jul 15:40:44 15:49:23 53° 263° (W) 15:59:00 435.800 - 435.900 CW/SSB
TMSAT-1 28 Jul 15:41:28 15:46:41 57° 259° (W) 15:51:55 436.925 FM
AO-27 28 Jul 15:49:02 15:52:11 16° 270° (W) 15:55:22 436.795 MHz FM
RS-15 28 Jul 15:49:11 15:59:56 54° 318° (NW) 16:10:38 29.354 - 29.394 USB, Beacon 29.352 USB
Uribyol 2 28 Jul 15:49:51 15:52:48 15° 271° (W) 15:55:45 436.500 FM
SO-50 28 Jul 15:51:48 15:53:36 12° 335° (NNW) 15:55:24 436.795 FM
Gurwin Techsat 1B 28 Jul 16:06:34 16:10:59 26° 266° (W) 16:15:26 435.225 FM
OPAL 28 Jul 16:07:18 16:10:36 17° 93° (E) 16:13:56 ?
UOSAT-12 28 Jul 16:11:53 16:16:14 39° 315° (NW) 16:20:40 437.025 FM, 437.400 FM
Saudisat 1A 28 Jul 16:19:48 16:24:10 58° 50° (NE) 16:28:30 436.775 MHz
JAS-2 28 Jul 16:26:02 16:30:31 17° 53° (NE) 16:34:50 435.800 - 435.900 CW/SSB, 435.910 FM
AO-7 28 Jul 16:43:55 16:52:15 71° 254° (WSW) 17:00:38 29.400 - 29.500 MHz
KITSAT 1 28 Jul 16:53:00 17:00:19 40° 250° (WSW) 17:07:37 435.175 FM
Uosat F 28 Jul 16:57:44 17:02:34 45° 261° (W) 17:07:25 435.120 FM
JAS-1B 28 Jul 17:40:13 17:42:20 11° 286° (WNW) 17:44:31 435.800 - 435.900 CW/SSB
OPAL 28 Jul 17:44:54 17:49:56 66° 290° (WNW) 17:54:59 ?
UOSAT-12 28 Jul 17:56:12 17:57:43 11° 337° (NNW) 17:59:14 437.025 FM, 437.400 FM
Saudisat 1A 28 Jul 18:00:19 18:03:21 18° 248° (WSW) 18:06:21 436.775 MHz
Hamsat 28 Jul 18:05:25 18:09:35 75° 75° (ENE) 18:13:47 145.90 MHz
RS-15 28 Jul 18:06:21 18:15:26 28° 350° (N) 18:24:35 29.354 - 29.394 USB, Beacon 29.352 USB
JAS-2 28 Jul 18:06:44 18:14:29 70° 72° (ENE) 18:21:41 435.800 - 435.900 CW/SSB, 435.910 FM
STRAND 1 28 Jul 18:30:31 18:32:34 12° 88° (E) 18:34:36 ?
AO-7 28 Jul 18:42:21 18:46:31 14° 274° (W) 18:50:42 29.400 - 29.500 MHz
SO-67 28 Jul 18:52:39 18:55:50 35° 72° (ENE) 18:59:02 435.3500 MHz FM
SO-50 28 Jul 19:17:20 19:19:18 12° 26° (NNE) 19:21:17 436.795 FM
OPAL 28 Jul 19:26:44 19:27:53 11° 309° (NW) 19:29:02 ?
Hamsat 28 Jul 19:45:18 19:46:05 10° 273° (W) 19:46:53 145.90 MHz
JAS-2 28 Jul 19:53:34 19:59:55 27° 269° (W) 20:06:00 435.800 - 435.900 CW/SSB, 435.910 FM
HO-68 28 Jul 19:54:36 20:00:45 32° 58° (ENE) 20:06:53 435.675 MHz FM
STRAND 1 28 Jul 20:07:18 20:12:27 87° 285° (WNW) 20:17:33 ?
UKube-1 28 Jul 20:19:36 20:22:42 19° 63° (ENE) 20:25:48 145.840 MHz, 145.915 MHz
RS-15 28 Jul 20:22:12 20:32:00 35° 25° (NNE) 20:41:58 29.354 - 29.394 USB, Beacon 29.352 USB
SO-67 28 Jul 20:26:57 20:29:03 15° 268° (W) 20:31:09 435.3500 MHz FM
SO-50 28 Jul 20:56:29 21:01:03 45° 47° (NE) 21:05:40 436.795 FM
Oscar 11 28 Jul 21:04:36 21:08:10 26° 66° (ENE) 21:11:45 145.825 FM, Beacon 2401.500 USB
MaSat-1 28 Jul 21:06:36 21:10:03 26° 105° (ESE) 21:13:57 437.345 MHz
UOSAT-12 28 Jul 21:20:10 21:22:35 14° 27° (NNE) 21:25:01 437.025 FM, 437.400 FM
FUNcube-1 28 Jul 21:25:59 21:28:47 17° 63° (ENE) 21:31:33 145.950 - 145.970 MHz USB
HO-68 28 Jul 21:41:02 21:48:05 59° 258° (WSW) 21:55:10 435.675 MHz FM
STRAND 1 28 Jul 21:48:24 21:50:53 14° 304° (NW) 21:53:21 ?
UKube-1 28 Jul 21:54:21 21:58:35 48° 260° (W) 22:02:50 145.840 MHz, 145.915 MHz
RS-15 28 Jul 22:35:05 22:46:10 83° 53° (NE) 22:57:37 29.354 - 29.394 USB, Beacon 29.352 USB
SO-50 28 Jul 22:37:25 22:41:26 28° 245° (WSW) 22:45:30 436.795 FM
Oscar 11 28 Jul 22:40:23 22:44:14 32° 264° (W) 22:48:08 145.825 FM, Beacon 2401.500 USB
MaSat-1 28 Jul 22:43:11 22:47:10 38° 308° (NW) 22:51:44 437.345 MHz
UOSAT-12 28 Jul 22:59:10 23:03:49 53° 49° (NE) 23:08:25 437.025 FM, 437.400 FM
FUNcube-1 28 Jul 23:00:38 23:04:50 51° 260° (W) 23:08:59 145.950 - 145.970 MHz USB
PCSat 28 Jul 23:40:57 23:41:52 10° 101° (E) 23:42:47 145.825 MHz
ISS 29 Jul 00:31:07 00:34:26 65° 147° (SSE) 00:37:46 145.800 FM
UOSAT-12 29 Jul 00:39:59 00:43:39 23° 247° (WSW) 00:47:17 437.025 FM, 437.400 FM
Sapphire 29 Jul 00:46:04 00:50:59 37° 112° (ESE) 00:55:57 437.095 MHz 1200 baud AX-25 AFSK
RS-15 29 Jul 00:48:27 00:57:21 30° 256° (WSW) 01:06:34 29.354 - 29.394 USB, Beacon 29.352 USB
Oscar 19 29 Jul 01:12:54 01:13:55 11° 86° (E) 01:14:56 437.125 CW, 437.150 USB
PCSat 29 Jul 01:18:55 01:24:18 73° 119° (ESE) 01:29:43 145.825 MHz
AO-40 29 Jul 01:27:17 04:07:48 21° 129° (SE) 05:24:25 Beacon 2401.320
JAS-1B 29 Jul 01:38:35 01:41:08 11° 75° (ENE) 01:43:37 435.800 - 435.900 CW/SSB
Oscar 16 29 Jul 01:38:55 01:42:44 21° 92° (E) 01:46:32 437.025 USB, Beacon 2401.1428
ITAMSAT 1 29 Jul 02:00:25 02:03:05 14° 89° (E) 02:05:45 435.822 SSB
ISS 29 Jul 02:08:13 02:11:20 34° 346° (NNW) 02:14:27 145.800 FM
AO-27 29 Jul 02:18:38 02:22:34 21° 92° (E) 02:26:27 436.795 MHz FM
Uribyol 2 29 Jul 02:18:53 02:22:52 22° 93° (E) 02:26:50 436.500 FM
Sapphire 29 Jul 02:29:22 02:34:24 39° 312° (NW) 02:39:29 437.095 MHz 1200 baud AX-25 AFSK
Gurwin Techsat 1B 29 Jul 02:41:09 02:44:05 15° 88° (E) 02:47:01 435.225 FM
Oscar 19 29 Jul 02:48:51 02:54:03 82° 104° (ESE) 02:59:15 437.125 CW, 437.150 USB
PCSat 29 Jul 03:03:58 03:08:17 24° 320° (NW) 03:12:37 145.825 MHz
AO-Echo 29 Jul 03:06:07 03:11:10 59° 101° (E) 03:16:01 ?
Oscar 16 29 Jul 03:17:23 03:22:26 55° 289° (WNW) 03:27:28 437.025 USB, Beacon 2401.1428
OPAL 29 Jul 03:23:55 03:28:29 39° 65° (ENE) 03:33:05 ?
JAS-1B 29 Jul 03:24:43 03:34:04 57° 98° (E) 03:42:03 435.800 - 435.900 CW/SSB
ITAMSAT 1 29 Jul 03:38:01 03:43:13 79° 287° (WNW) 03:48:22 435.822 SSB
ISS 29 Jul 03:45:40 03:48:39 28° 6° (N) 03:51:37 145.800 FM
Oscar 10/S400 29 Jul 03:48:46 04:51:17 49° 212° (SSW) 11:21:08 145.825 - 145.975 CW/USB, Beacon 145.810 USB
TMSAT-1 29 Jul 03:55:02 04:00:11 49° 99° (E) 04:05:17 436.925 FM
AO-27 29 Jul 03:57:21 04:02:24 53° 290° (WNW) 04:07:25 436.795 MHz FM
Uribyol 2 29 Jul 03:57:39 04:02:38 51° 290° (WNW) 04:07:36 436.500 FM
Sapphire 29 Jul 04:17:48 04:19:26 11° 335° (NNW) 04:21:05 437.095 MHz 1200 baud AX-25 AFSK
Gurwin Techsat 1B 29 Jul 04:19:21 04:24:41 78° 286° (WNW) 04:29:59 435.225 FM
Oscar 19 29 Jul 04:29:44 04:32:45 16° 302° (WNW) 04:35:46 437.125 CW, 437.150 USB
AO-7 29 Jul 04:43:21 04:50:51 36° 96° (E) 04:58:16 29.400 - 29.500 MHz
AO-Echo 29 Jul 04:45:49 04:49:28 20° 299° (WNW) 04:53:03 ?
Uosat F 29 Jul 05:03:03 05:07:54 47° 99° (E) 05:12:42 435.120 FM
OPAL 29 Jul 05:03:17 05:07:28 28° 263° (W) 05:11:42 ?
JAS-1B 29 Jul 05:15:29 05:24:11 42° 301° (WNW) 05:31:53 435.800 - 435.900 CW/SSB
ITAMSAT 1 29 Jul 05:19:42 05:21:52 13° 305° (NW) 05:24:01 435.822 SSB
MaSat-1 29 Jul 05:22:20 05:26:11 20° 43° (NE) 05:29:58 437.345 MHz
ISS 29 Jul 05:22:24 05:25:46 67° 26° (NNE) 05:29:07 145.800 FM
KITSAT 1 29 Jul 05:29:27 05:35:48 26° 105° (ESE) 05:42:09 435.175 FM
TMSAT-1 29 Jul 05:35:33 05:39:49 25° 297° (WNW) 05:44:04 436.925 FM
STRAND 1 29 Jul 05:47:40 05:51:45 25° 62° (ENE) 05:55:51 ?
Hamsat 29 Jul 05:50:58 05:52:36 12° 88° (E) 05:54:14 145.90 MHz
Gurwin Techsat 1B 29 Jul 06:01:30 06:03:47 13° 305° (NW) 06:06:04 435.225 FM
AO-7 29 Jul 06:35:52 06:43:59 58° 296° (WNW) 06:52:03 29.400 - 29.500 MHz
Uosat F 29 Jul 06:42:25 06:46:25 25° 297° (WNW) 06:50:25 435.120 FM
MaSat-1 29 Jul 06:58:53 07:04:15 86° 243° (WSW) 07:09:20 437.345 MHz
ISS 29 Jul 06:59:37 07:02:13 21° 224° (SW) 07:04:48 145.800 FM
JAS-2 29 Jul 07:00:22 07:06:09 46° 97° (E) 07:11:21 435.800 - 435.900 CW/SSB, 435.910 FM
JAS-1B 29 Jul 07:08:31 07:11:58 13° 324° (NW) 07:15:18 435.800 - 435.900 CW/SSB
KITSAT 1 29 Jul 07:22:17 07:30:24 78° 305° (NW) 07:38:33 435.175 FM
Hamsat 29 Jul 07:24:45 07:29:03 71° 285° (WNW) 07:33:21 145.90 MHz
STRAND 1 29 Jul 07:25:41 07:30:39 49° 260° (W) 07:35:39 ?
SO-67 29 Jul 07:47:21 07:50:29 31° 96° (E) 07:53:37 435.3500 MHz FM
Sapphire 29 Jul 07:49:20 07:51:57 13° 29° (NNE) 07:54:34 437.095 MHz 1200 baud AX-25 AFSK
Saudisat 1A 29 Jul 08:07:20 08:11:43 68° 123° (ESE) 08:16:08 436.775 MHz
PCSat 29 Jul 08:22:05 08:26:06 20° 38° (NE) 08:30:05 145.825 MHz
AO-7 29 Jul 08:30:29 08:35:04 16° 319° (NW) 08:39:39 29.400 - 29.500 MHz
MaSat-1 29 Jul 08:38:29 08:40:44 13° 262° (W) 08:42:55 437.345 MHz
JAS-2 29 Jul 08:45:53 08:50:59 29° 299° (WNW) 08:55:38 435.800 - 435.900 CW/SSB, 435.910 FM
HO-68 29 Jul 09:06:54 09:12:35 25° 92° (E) 09:18:12 435.675 MHz FM
KITSAT 1 29 Jul 09:20:30 09:27:10 27° 330° (NNW) 09:33:50 435.175 FM
SO-67 29 Jul 09:20:58 09:23:21 18° 293° (WNW) 09:25:45 435.3500 MHz FM
Sapphire 29 Jul 09:31:26 09:36:44 50° 52° (NE) 09:41:59 437.095 MHz 1200 baud AX-25 AFSK
UKube-1 29 Jul 09:40:53 09:44:26 24° 95° (E) 09:47:56 145.840 MHz, 145.915 MHz
Saudisat 1A 29 Jul 09:48:21 09:51:44 21° 323° (NW) 09:55:09 436.775 MHz
PCSat 29 Jul 10:04:48 10:10:16 89° 239° (WSW) 10:15:42 145.825 MHz
Oscar 11 29 Jul 10:25:24 10:29:27 37° 97° (E) 10:33:29 145.825 FM, Beacon 2401.500 USB
FUNcube-1 29 Jul 10:47:54 10:51:19 24° 94° (E) 10:54:45 145.950 - 145.970 MHz USB
HO-68 29 Jul 10:53:45 11:00:52 69° 291° (WNW) 11:07:56 435.675 MHz FM
Sapphire 29 Jul 11:15:21 11:19:53 28° 251° (WSW) 11:24:24 437.095 MHz 1200 baud AX-25 AFSK
UKube-1 29 Jul 11:16:44 11:20:43 36° 292° (WNW) 11:24:41 145.840 MHz, 145.915 MHz
KITSAT 1 29 Jul 11:20:56 11:25:52 17° 360° (N) 11:30:47 435.175 FM
